Location: Saint-Palais-sur-Mer
(45.6429°N, 1.0859°W)
Time: 15:17:14
(UTC+01:00)

S-56A Canister/Altair - Pass Details

Date: 10 February 2026
Orbit: 633 x 2484 km, 38.9° (Epoch: 16 March)

Event Time Altitude Azimuth Distance (km) Brightness Sun altitude
Exits shadow 04:24:53 58° 152° (SSE) 2,076 9.5 -40.0°
Drops below altitude 10° 04:36:54 10° 95° (E) 4,864 12.2 -38.1°
Sets 04:41:10 0° 93° (E) 6,022 12.9 -37.4°
